CW2433 Weather Reports


Display with metric or nautical units.
time (UTC)temp
F
wind
direction
speed
MPH
gust
MPH
rain 1hr
in
rain 24hr
in
rain mn
in
humidity
%
barometer
mb
20190424000510 66 46 0.0 5.0 0.00 0.00 0.00 28 1016.4
20190424000010 67 79 2.0 7.0 0.00 0.00 0.00 26 1016.5
20190423235510 67 71 3.0 7.0 0.00 0.00 0.00 26 1016.5
20190423235011 67 80 0.0 9.0 0.00 0.00 0.00 26 1016.5
20190423234510 67 76 3.0 9.0 0.00 0.00 0.00 25 1016.6
20190423234011 67 83 1.0 9.0 0.00 0.00 0.00 26 1016.6
20190423233510 67 69 2.0 7.0 0.00 0.00 0.00 25 1016.8
20190423233011 67 88 3.0 7.0 0.00 0.00 0.00 26 1016.8
20190423232510 68 94 1.0 8.0 0.00 0.00 0.00 25 1016.9
20190423232011 68 87 2.0 9.0 0.00 0.00 0.00 25 1016.9
20190423231510 68 38 3.0 10.0 0.00 0.00 0.00 24 1017.0
20190423231011 68 73 5.0 10.0 0.00 0.00 0.00 23 1017.0
20190423230510 68 60 3.0 10.0 0.00 0.00 0.00 24 1016.9
20190423230010 68 74 1.0 10.0 0.00 0.00 0.00 23 1017.0
20190423225510 67 80 1.0 5.0 0.00 0.00 0.00 22 1017.0
20190423225011 67 69 2.0 7.0 0.00 0.00 0.00 24 1017.1
20190423224509 67 63 2.0 8.0 0.00 0.00 0.00 22 1017.1
20190423224010 68 78 2.0 10.0 0.00 0.00 0.00 24 1017.0
20190423223509 68 76 6.0 10.0 0.00 0.00 0.00 22 1017.0
20190423223010 68 74 2.0 6.0 0.00 0.00 0.00 23 1017.0
20190423222509 68 101 1.0 6.0 0.00 0.00 0.00 23 1017.0
20190423222010 68 87 0.0 9.0 0.00 0.00 0.00 23 1017.0
20190423221509 68 119 3.0 9.0 0.00 0.00 0.00 23 1017.1
20190423221010 68 59 4.0 9.0 0.00 0.00 0.00 22 1017.0
20190423220509 69 77 2.0 9.0 0.00 0.00 0.00 22 1017.0
20190423220009 69 78 2.0 9.0 0.00 0.00 0.00 23 1016.9
20190423215509 69 53 2.0 9.0 0.00 0.00 0.00 23 1017.0
20190423215010 69 90 3.0 12.0 0.00 0.00 0.00 23 1017.0
20190423214510 69 53 4.0 12.0 0.00 0.00 0.00 22 1017.3
20190423214010 70 78 5.0 12.0 0.00 0.00 0.00 22 1017.3
20190423213509 69 64 4.0 9.0 0.00 0.00 0.00 23 1017.3
20190423213010 69 84 3.0 12.0 0.00 0.00 0.00 23 1017.4
20190423212509 69 52 4.0 12.0 0.00 0.00 0.00 25 1017.4
20190423212010 69 22 1.0 10.0 0.00 0.00 0.00 26 1017.4
20190423211509 69 79 3.0 12.0 0.00 0.00 0.00 23 1017.4
20190423211010 70 57 5.0 12.0 0.00 0.00 0.00 24 1017.4
20190423210509 70 87 3.0 9.0 0.00 0.00 0.00 23 1017.5
20190423210009 69 67 3.0 13.0 0.00 0.00 0.00 25 1017.6
20190423205509 69 55 5.0 13.0 0.00 0.00 0.00 23 1017.7
20190423205010 69 45 5.0 9.0 0.00 0.00 0.00 24 1017.7
20190423204510 68 15 5.0 9.0 0.00 0.00 0.00 22 1017.8
20190423204010 68 36 5.0 14.0 0.00 0.00 0.00 23 1017.8
20190423203509 69 27 5.0 14.0 0.00 0.00 0.00 23 1017.9
20190423203011 69 69 3.0 9.0 0.00 0.00 0.00 23 1017.9
20190423202509 69 32 0.0 14.0 0.00 0.00 0.00 22 1018.0
20190423202010 69 28 6.0 14.0 0.00 0.00 0.00 21 1018.0
20190423201510 69 61 6.0 14.0 0.00 0.00 0.00 22 1018.0
20190423201010 69 41 6.0 13.0 0.00 0.00 0.00 23 1018.3
20190423200510 69 130 6.0 12.0 0.00 0.00 0.00 22 1018.3
20190423200010 69 69 2.0 12.0 0.00 0.00 0.00 24 1018.3
20190423195510 68 132 2.0 13.0 0.00 0.00 0.00 24 1018.4
20190423195011 68 90 6.0 13.0 0.00 0.00 0.00 21 1018.4
20190423194510 69 128 2.0 12.0 0.00 0.00 0.00 21 1018.5
20190423194010 68 82 4.0 12.0 0.00 0.00 0.00 24 1018.5
20190423193510 69 80 2.0 12.0 0.00 0.00 0.00 25 1018.5
20190423193011 68 68 2.0 12.0 0.00 0.00 0.00 24 1018.5
20190423192510 68 69 5.0 12.0 0.00 0.00 0.00 23 1018.6
20190423192011 68 79 3.0 15.0 0.00 0.00 0.00 26 1018.6
20190423191510 67 63 5.0 15.0 0.00 0.00 0.00 26 1018.6
20190423191011 67 105 6.0 13.0 0.00 0.00 0.00 25 1018.8
20190423190510 67 57 4.0 16.0 0.00 0.00 0.00 27 1019.0
20190423190010 67 64 8.0 16.0 0.00 0.00 0.00 24 1019.0
20190423185510 67 45 4.0 12.0 0.00 0.00 0.00 27 1019.0
20190423185011 66 89 4.0 12.0 0.00 0.00 0.00 27 1019.1
20190423184509 67 47 6.0 14.0 0.00 0.00 0.00 27 1019.1
20190423184011 66 43 5.0 14.0 0.00 0.00 0.00 27 1019.2
20190423183510 67 50 7.0 14.0 0.00 0.00 0.00 27 1019.4
20190423183011 66 57 3.0 14.0 0.00 0.00 0.00 28 1019.6
20190423182510 66 78 7.0 14.0 0.00 0.00 0.00 28 1019.6
20190423182011 66 46 5.0 12.0 0.00 0.00 0.00 28 1019.6
20190423181510 66 72 3.0 13.0 0.00 0.00 0.00 29 1019.6
20190423181011 65 100 3.0 13.0 0.00 0.00 0.00 29 1019.7
20190423180510 65 14 6.0 13.0 0.00 0.00 0.00 30 1019.9
20190423180010 65 42 6.0 13.0 0.00 0.00 0.00 31 1019.9
20190423175509 65 17 5.0 12.0 0.00 0.00 0.00 33 1020.2
20190423175010 65 76 6.0 12.0 0.00 0.00 0.00 32 1020.3
20190423174509 64 1 6.0 15.0 0.00 0.00 0.00 33 1020.4
20190423174010 63 0 6.0 15.0 0.00 0.00 0.00 33 1020.6
20190423173509 63 98 6.0 12.0 0.00 0.00 0.00 32 1020.7
20190423173010 63 69 5.0 12.0 0.00 0.00 0.00 34 1020.7
20190423172509 63 5 5.0 13.0 0.00 0.00 0.00 36 1020.8
20190423172010 62 337 5.0 13.0 0.00 0.00 0.00 39 1020.8
20190423171509 62 58 6.0 12.0 0.00 0.00 0.00 38 1020.8
20190423171010 62 80 5.0 14.0 0.00 0.00 0.00 42 1021.0
20190423170509 61 23 9.0 14.0 0.00 0.00 0.00 38 1021.2
20190423170009 60 5 6.0 14.0 0.00 0.00 0.00 42 1021.3
20190423165509 60 23 8.0 14.0 0.00 0.00 0.00 43 1021.3
20190423165010 60 5 7.0 16.0 0.00 0.00 0.00 45 1021.3
20190423164509 59 43 9.0 16.0 0.00 0.00 0.00 45 1021.4
20190423164010 59 30 7.0 13.0 0.00 0.00 0.00 46 1021.4
20190423163509 59 321 6.0 13.0 0.00 0.00 0.00 47 1021.6
20190423163010 58 0 5.0 12.0 0.00 0.00 0.00 48 1021.6
20190423162509 58 355 4.0 12.0 0.00 0.00 0.00 49 1021.8
20190423162010 57 0 7.0 12.0 0.00 0.00 0.00 50 1021.9
20190423161509 57 350 7.0 13.0 0.00 0.00 0.00 50 1021.9
20190423161010 56 5 6.0 13.0 0.00 0.00 0.00 52 1022.0
20190423160509 56 10 6.0 13.0 0.00 0.00 0.00 57 1022.0
20190423160010 56 24 9.0 13.0 0.00 0.00 0.00 56 1022.0
20190423155509 56 78 7.0 13.0 0.00 0.00 0.00 57 1021.9
20190423155010 55 30 6.0 13.0 0.00 0.00 0.00 60 1022.0
20190423154510 54 8 6.0 13.0 0.00 0.00 0.00 61 1022.1
20190423154010 54 13 5.0 13.0 0.00 0.00 0.00 63 1022.1
20190423153509 53 20 5.0 12.0 0.00 0.00 0.00 67 1022.2
20190423153011 52 0 5.0 10.0 0.00 0.00 0.00 69 1022.2
20190423152509 52 326 3.0 12.0 0.00 0.00 0.00 70 1022.2
20190423152010 51 5 5.0 12.0 0.00 0.00 0.00 71 1022.2
20190423151510 51 1 5.0 12.0 0.00 0.00 0.00 73 1022.2
20190423151010 50 331 7.0 13.0 0.00 0.00 0.00 74 1022.3
20190423150510 49 358 6.0 16.0 0.00 0.00 0.00 74 1022.3
20190423150010 49 0 7.0 16.0 0.00 0.00 0.00 74 1022.3
20190423145509 49 351 9.0 14.0 0.00 0.00 0.00 75 1022.3
20190423145010 49 343 8.0 15.0 0.00 0.00 0.00 75 1022.3
20190423144510 49 342 7.0 15.0 0.00 0.00 0.00 75 1022.3
20190423144010 49 355 7.0 15.0 0.00 0.00 0.00 76 1022.3
20190423143509 48 343 9.0 13.0 0.00 0.00 0.00 76 1022.3
20190423143011 48 331 6.0 12.0 0.00 0.00 0.00 77 1022.3
20190423142510 48 6 7.0 15.0 0.00 0.00 0.00 77 1022.4
20190423142011 48 44 7.0 15.0 0.00 0.00 0.00 77 1022.4
20190423141510 48 353 7.0 12.0 0.00 0.00 0.00 78 1022.4
20190423141011 47 60 5.0 14.0 0.00 0.00 0.00 79 1022.4
20190423140510 47 348 7.0 14.0 0.00 0.00 0.00 79 1022.4
20190423140010 46 355 8.0 14.0 0.00 0.00 0.00 79 1022.4
20190423135510 46 8 7.0 12.0 0.00 0.00 0.00 80 1022.5
20190423135011 46 336 7.0 13.0 0.00 0.00 0.00 80 1022.5
20190423134510 46 6 9.0 13.0 0.00 0.00 0.00 81 1022.6
20190423134011 46 355 8.0 13.0 0.00 0.00 0.00 81 1022.6
20190423133510 46 7 7.0 13.0 0.00 0.00 0.00 81 1022.6
20190423133011 46 342 5.0 13.0 0.00 0.00 0.00 82 1022.5
20190423132510 46 355 8.0 13.0 0.00 0.00 0.00 82 1022.6
20190423132011 46 10 5.0 12.0 0.00 0.00 0.00 82 1022.7
20190423131510 45 8 7.0 12.0 0.00 0.00 0.00 83 1022.8
20190423131011 46 355 7.0 13.0 0.00 0.00 0.00 83 1022.8
20190423130509 46 13 7.0 13.0 0.00 0.00 0.00 83 1022.8
20190423130009 46 0 5.0 12.0 0.00 0.00 0.00 84 1022.8
20190423125509 46 9 6.0 10.0 0.00 0.00 0.00 84 1022.7
20190423125010 45 333 2.0 9.0 0.00 0.00 0.00 84 1022.7
20190423124509 45 13 2.0 7.0 0.00 0.00 0.00 84 1022.6
20190423124010 45 29 3.0 10.0 0.00 0.00 0.00 84 1022.6
20190423123509 45 36 4.0 10.0 0.00 0.00 0.00 84 1022.5
20190423123010 45 5 3.0 10.0 0.00 0.00 0.00 84 1022.4
20190423122509 45 27 3.0 7.0 0.00 0.00 0.00 84 1022.4
20190423122010 45 5 2.0 7.0 0.00 0.00 0.00 84 1022.4
20190423121509 45 338 4.0 7.0 0.00 0.00 0.00 84 1022.4
20190423121010 45 40 3.0 14.0 0.00 0.00 0.00 84 1022.5
20190423120509 45 27 5.0 14.0 0.00 0.00 0.00 83 1022.5
20190423120009 46 356 7.0 12.0 0.00 0.00 0.00 84 1022.4
20190423115509 46 0 5.0 12.0 0.00 0.00 0.00 84 1022.3
20190423115010 46 0 6.0 12.0 0.00 0.00 0.00 84 1022.2
20190423114509 46 8 4.0 9.0 0.00 0.00 0.00 84 1022.1
20190423114010 46 355 3.0 12.0 0.00 0.00 0.00 84 1021.9
20190423113509 46 9 5.0 12.0 0.00 0.00 0.00 84 1021.8
20190423113010 46 42 3.0 9.0 0.00 0.00 0.00 84 1021.7
20190423112509 46 358 6.0 9.0 0.00 0.00 0.00 84 1021.6
20190423112010 46 5 2.0 6.0 0.00 0.00 0.00 84 1021.6
20190423111509 46 357 2.0 6.0 0.00 0.00 0.00 84 1021.6
20190423111010 46 324 2.0 6.0 0.00 0.00 0.00 84 1021.4
20190423110509 46 5 2.0 6.0 0.00 0.00 0.00 84 1021.6
20190423110009 46 355 3.0 7.0 0.00 0.00 0.00 83 1021.5
20190423105509 46 12 4.0 9.0 0.00 0.00 0.00 83 1021.2
20190423105010 46 0 3.0 9.0 0.00 0.00 0.00 83 1021.2
20190423104510 47 337 5.0 12.0 0.00 0.00 0.00 83 1021.1
20190423104010 47 18 5.0 12.0 0.00 0.00 0.00 83 1021.1
20190423103509 47 13 3.0 7.0 0.00 0.00 0.00 83 1021.4
20190423103011 47 0 3.0 7.0 0.00 0.00 0.00 83 1021.5
20190423102509 47 20 3.0 6.0 0.00 0.00 0.00 83 1021.6
20190423102010 47 341 2.0 5.0 0.00 0.00 0.00 82 1021.6
20190423101510 47 12 3.0 5.0 0.00 0.00 0.00 82 1021.8
20190423101010 47 18 1.0 2.0 0.00 0.00 0.00 82 1021.8
20190423100510 47 31 1.0 1.0 0.00 0.00 0.00 82 1022.0
20190423100010 47 250 0.0 3.0 0.00 0.00 0.00 82 1021.9
20190423095510 47 12 1.0 6.0 0.00 0.00 0.00 82 1021.7
20190423095010 48 332 3.0 9.0 0.00 0.00 0.00 81 1021.2
20190423094510 48 355 3.0 9.0 0.00 0.00 0.00 81 1021.2
20190423094011 48 12 3.0 7.0 0.00 0.00 0.00 81 1021.2
20190423093510 48 296 2.0 6.0 0.00 0.00 0.00 80 1020.9
20190423093011 48 5 4.0 6.0 0.00 0.00 0.00 80 1020.9
20190423092510 48 5 3.0 6.0 0.00 0.00 0.00 79 1021.0
20190423092011 48 355 3.0 6.0 0.00 0.00 0.00 79 1021.1
20190423091510 48 5 3.0 7.0 0.00 0.00 0.00 78 1021.2
20190423091011 48 14 2.0 7.0 0.00 0.00 0.00 78 1021.2
20190423090510 48 7 4.0 7.0 0.00 0.00 0.00 77 1021.1
20190423090010 48 2 5.0 10.0 0.00 0.00 0.00 77 1021.1
20190423085510 48 22 5.0 12.0 0.00 0.00 0.00 77 1021.1
20190423085011 48 11 3.0 14.0 0.00 0.00 0.00 76 1021.1
20190423084510 48 10 6.0 14.0 0.00 0.00 0.00 76 1021.0
20190423084011 49 23 7.0 14.0 0.00 0.00 0.00 76 1021.1
20190423083510 49 22 7.0 15.0 0.00 0.00 0.00 76 1021.1
20190423083011 49 19 9.0 15.0 0.00 0.00 0.00 76 1021.1
20190423082510 49 344 7.0 13.0 0.00 0.00 0.00 77 1021.1
20190423082011 49 37 7.0 12.0 0.00 0.00 0.00 77 1021.0
20190423081509 49 359 7.0 12.0 0.00 0.00 0.00 77 1021.0
20190423081010 49 23 5.0 13.0 0.00 0.00 0.00 77 1021.1
20190423080509 49 355 6.0 13.0 0.00 0.00 0.00 77 1021.1
20190423080009 49 355 7.0 12.0 0.00 0.00 0.00 77 1021.1
20190423075509 49 357 7.0 12.0 0.00 0.00 0.00 77 1021.1
20190423075010 49 0 5.0 14.0 0.00 0.00 0.00 78 1021.1
20190423074509 49 340 6.0 15.0 0.00 0.00 0.00 78 1021.1
20190423074010 49 15 10.0 16.0 0.00 0.00 0.00 80 1020.9
20190423073509 49 22 8.0 16.0 0.00 0.00 0.00 78 1020.8
20190423073010 49 50 7.0 16.0 0.00 0.00 0.00 79 1020.8
20190423072509 49 0 8.0 16.0 0.00 0.00 0.00 79 1020.7
20190423072010 49 341 6.0 12.0 0.00 0.00 0.00 79 1020.7
20190423071509 49 346 6.0 12.0 0.00 0.00 0.00 79 1020.8
20190423071010 49 28 5.0 12.0 0.00 0.00 0.00 79 1021.0
20190423070509 49 14 4.0 12.0 0.00 0.00 0.00 79 1021.1
20190423070010 49 19 6.0 12.0 0.00 0.00 0.00 79 1021.0
20190423065509 49 24 5.0 12.0 0.00 0.00 0.00 79 1021.1
20190423065010 49 0 6.0 12.0 0.00 0.00 0.00 79 1021.1
20190423064510 49 0 8.0 14.0 0.00 0.00 0.00 80 1021.1
20190423064010 49 28 9.0 14.0 0.00 0.00 0.00 80 1021.1
20190423063509 49 22 6.0 15.0 0.00 0.00 0.00 80 1021.3
20190423063011 50 355 9.0 15.0 0.00 0.00 0.00 81 1021.2
20190423062509 50 51 4.0 14.0 0.00 0.00 0.00 81 1021.2
20190423062010 50 5 5.0 15.0 0.00 0.00 0.00 81 1021.3
20190423061509 50 0 7.0 15.0 0.00 0.00 0.00 81 1021.3
20190423061010 50 326 2.0 12.0 0.00 0.00 0.00 81 1021.2
20190423060509 50 21 3.0 12.0 0.00 0.00 0.00 81 1021.1
20190423060010 50 336 5.0 12.0 0.00 0.00 0.00 81 1021.1
20190423055509 50 8 5.0 12.0 0.00 0.00 0.00 81 1021.1
20190423055010 50 5 1.0 12.0 0.00 0.00 0.00 81 1021.1
20190423054510 50 359 6.0 13.0 0.00 0.00 0.00 80 1021.0
20190423054011 50 5 6.0 13.0 0.00 0.00 0.00 80 1021.0
20190423053510 50 344 9.0 13.0 0.00 0.00 0.00 80 1021.0
20190423053011 50 333 6.0 16.0 0.00 0.00 0.00 80 1020.9
20190423052509 50 338 6.0 16.0 0.00 0.00 0.00 80 1020.9
20190423052011 50 347 6.0 17.0 0.00 0.00 0.00 80 1020.9
20190423051510 51 352 7.0 17.0 0.00 0.00 0.00 80 1021.0
20190423051011 51 339 7.0 15.0 0.00 0.00 0.00 80 1021.0
20190423050510 51 6 9.0 14.0 0.00 0.00 0.00 80 1021.0
20190423050010 51 7 6.0 14.0 0.00 0.00 0.00 80 1021.0
20190423045515 51 356 4.0 12.0 0.00 0.00 0.00 80 1021.0
20190423045011 51 339 5.0 14.0 0.00 0.00 0.00 80 1020.9
20190423044510 51 343 6.0 14.0 0.00 0.00 0.00 80 1020.9
20190423044011 51 18 6.0 14.0 0.00 0.00 0.00 80 1020.9
20190423043510 51 346 5.0 14.0 0.00 0.00 0.00 80 1020.9
20190423043011 51 346 6.0 14.0 0.00 0.00 0.00 80 1020.9
20190423042510 51 6 7.0 16.0 0.00 0.00 0.00 80 1020.9
20190423042010 51 306 6.0 16.0 0.00 0.00 0.00 79 1020.9
20190423041509 51 345 6.0 16.0 0.00 0.00 0.00 79 1020.9
20190423041010 51 5 9.0 16.0 0.00 0.00 0.00 79 1020.8
20190423040509 51 344 7.0 14.0 0.00 0.00 0.00 79 1020.7
20190423040009 51 357 9.0 14.0 0.00 0.00 0.00 79 1020.7
20190423035509 51 12 3.0 16.0 0.00 0.00 0.00 79 1020.7
20190423035010 51 0 8.0 16.0 0.00 0.00 0.00 79 1020.7
20190423034509 51 13 7.0 15.0 0.00 0.00 0.00 79 1020.7
20190423034010 51 5 7.0 15.0 0.00 0.00 0.00 79 1020.5
20190423033509 51 23 3.0 12.0 0.00 0.00 0.00 79 1020.5
20190423033010 51 348 4.0 12.0 0.00 0.00 0.00 79 1020.5
20190423032509 51 355 5.0 16.0 0.00 0.00 0.00 79 1020.4
20190423032010 51 0 9.0 16.0 0.00 0.00 0.00 79 1020.4
20190423031509 51 347 6.0 15.0 0.00 0.00 0.00 79 1020.4
20190423031010 51 327 6.0 13.0 0.00 0.00 0.00 79 1020.4
20190423030509 51 35 3.0 15.0 0.00 0.00 0.00 78 1020.4
20190423030010 51 345 8.0 15.0 0.00 0.00 0.00 78 1020.4
20190423025509 52 344 3.0 10.0 0.00 0.00 0.00 78 1020.3
20190423025010 51 355 4.0 12.0 0.00 0.00 0.00 78 1020.2
20190423024509 51 357 3.0 12.0 0.00 0.00 0.00 79 1020.2
20190423024010 51 355 2.0 12.0 0.00 0.00 0.00 79 1020.2
20190423023509 51 355 3.0 12.0 0.00 0.00 0.00 79 1020.2
20190423023010 51 302 5.0 12.0 0.00 0.00 0.00 79 1020.0
20190423022509 51 348 3.0 10.0 0.00 0.00 0.00 79 1019.9
20190423022010 51 350 2.0 13.0 0.00 0.00 0.00 79 1019.9
20190423021510 51 265 5.0 13.0 0.00 0.00 0.00 79 1019.7
20190423021011 51 298 4.0 10.0 0.00 0.00 0.00 79 1019.8
20190423020509 51 292 5.0 10.0 0.00 0.00 0.00 80 1019.6
20190423020010 51 344 2.0 12.0 0.00 0.00 0.00 80 1019.4
20190423015509 51 342 3.0 12.0 0.00 0.00 0.00 80 1019.4
20190423015011 51 279 2.0 7.0 0.00 0.00 0.00 81 1019.3
20190423014510 51 323 2.0 10.0 0.00 0.00 0.00 81 1019.2
20190423014010 51 0 2.0 10.0 0.00 0.00 0.00 82 1019.1
20190423013509 51 329 2.0 12.0 0.00 0.00 0.00 82 1019.1
20190423013011 51 293 2.0 12.0 0.00 0.00 0.00 82 1019.1
20190423012509 51 327 4.0 10.0 0.00 0.00 0.00 82 1019.0
20190423012011 51 293 2.0 10.0 0.00 0.00 0.00 82 1019.1
20190423011510 51 333 2.0 6.0 0.00 0.00 0.00 82 1019.1
20190423011011 51 283 2.0 12.0 0.00 0.00 0.00 81 1019.1
20190423010510 51 336 3.0 13.0 0.00 0.00 0.00 81 1019.1
20190423010010 51 315 5.0 14.0 0.00 0.00 0.00 80 1019.1
20190423005510 52 357 7.0 14.0 0.00 0.00 0.00 80 1019.3
20190423005011 52 355 2.0 5.0 0.00 0.00 0.00 80 1019.3
20190423004510 52 325 2.0 6.0 0.00 0.00 0.00 80 1019.2
20190423004011 52 279 2.0 12.0 0.00 0.00 0.00 80 1019.3
20190423003510 52 288 3.0 12.0 0.00 0.00 0.00 80 1019.3
20190423003011 52 269 2.0 9.0 0.00 0.00 0.00 80 1019.2
20190423002510 52 321 1.0 7.0 0.00 0.00 0.00 80 1019.1
20190423002011 52 323 1.0 7.0 0.00 0.00 0.00 80 1019.1
20190423001510 52 341 3.0 7.0 0.00 0.00 0.00 79 1019.1
20190423001011 52 0 2.0 16.0 0.00 0.00 0.00 79 1019.0